,Coso Junction,Coso Junction
,PM10_1HR,PM10_1HR
,,
Date,Value,Null Code
01-Oct-2017 00:00,16.2,
01-Oct-2017 01:00,14.3,
01-Oct-2017 02:00,12.5,
01-Oct-2017 03:00,13.3,
01-Oct-2017 04:00,12.1,
01-Oct-2017 05:00,13.4,
01-Oct-2017 06:00,13.7,
01-Oct-2017 07:00,19.1,
01-Oct-2017 08:00,21.6,
01-Oct-2017 09:00,12.3,
01-Oct-2017 10:00,10.8,
01-Oct-2017 11:00,11.3,
01-Oct-2017 12:00,14.7,
01-Oct-2017 13:00,17.8,
01-Oct-2017 14:00,18.5,
01-Oct-2017 15:00,18.2,
01-Oct-2017 16:00,28,
01-Oct-2017 17:00,21,
01-Oct-2017 18:00,31,
01-Oct-2017 19:00,30.6,
01-Oct-2017 20:00,22.5,
01-Oct-2017 21:00,30.6,
01-Oct-2017 22:00,128.6,
01-Oct-2017 23:00,160.7,
02-Oct-2017 00:00,152.4,
02-Oct-2017 01:00,113.8,
02-Oct-2017 02:00,69.4,
02-Oct-2017 03:00,61.1,
02-Oct-2017 04:00,48.4,
02-Oct-2017 05:00,28.7,
02-Oct-2017 06:00,21.8,
02-Oct-2017 07:00,25.1,
02-Oct-2017 08:00,15.7,
02-Oct-2017 09:00,9.2,
02-Oct-2017 10:00,10.2,
02-Oct-2017 11:00,12.1,
02-Oct-2017 12:00,12.3,
02-Oct-2017 13:00,17.6,
02-Oct-2017 14:00,26,
02-Oct-2017 15:00,19.7,
02-Oct-2017 16:00,18.8,
02-Oct-2017 17:00,22.9,
02-Oct-2017 18:00,26.1,
02-Oct-2017 19:00,26.4,
02-Oct-2017 20:00,32.2,
02-Oct-2017 21:00,44.4,
02-Oct-2017 22:00,32.4,
02-Oct-2017 23:00,28.2,
03-Oct-2017 00:00,29.9,
03-Oct-2017 01:00,26.8,
03-Oct-2017 02:00,26.4,
03-Oct-2017 03:00,34.6,
03-Oct-2017 04:00,26,
03-Oct-2017 05:00,25.6,
03-Oct-2017 06:00,25.9,
03-Oct-2017 07:00,27.3,
03-Oct-2017 08:00,29.6,
03-Oct-2017 09:00,28.2,
03-Oct-2017 10:00,28.1,
03-Oct-2017 11:00,53.3,
03-Oct-2017 12:00,48,
03-Oct-2017 13:00,45.7,
03-Oct-2017 14:00,43.2,
03-Oct-2017 15:00,45.2,
03-Oct-2017 16:00,86.9,
03-Oct-2017 17:00,72.5,
03-Oct-2017 18:00,88.4,
03-Oct-2017 19:00,55.2,
03-Oct-2017 20:00,47.2,
03-Oct-2017 21:00,57.8,
03-Oct-2017 22:00,41.4,
03-Oct-2017 23:00,29.8,
04-Oct-2017 00:00,23.9,
04-Oct-2017 01:00,24.2,
04-Oct-2017 02:00,21,
04-Oct-2017 03:00,20.5,
04-Oct-2017 04:00,19,
04-Oct-2017 05:00,17.4,
04-Oct-2017 06:00,16.1,
04-Oct-2017 07:00,19.1,
04-Oct-2017 08:00,17.2,
04-Oct-2017 09:00,15.1,
04-Oct-2017 10:00,14.8,
04-Oct-2017 11:00,19,
04-Oct-2017 12:00,20.2,
04-Oct-2017 13:00,19.9,
04-Oct-2017 14:00,25,
04-Oct-2017 15:00,34.1,
04-Oct-2017 16:00,36.2,
04-Oct-2017 17:00,31.9,
04-Oct-2017 18:00,32.4,
04-Oct-2017 19:00,32.9,
04-Oct-2017 20:00,31.9,
04-Oct-2017 21:00,32.7,
04-Oct-2017 22:00,30.6,
04-Oct-2017 23:00,33,
05-Oct-2017 00:00,33.4,
05-Oct-2017 01:00,32.8,
05-Oct-2017 02:00,30.6,
05-Oct-2017 03:00,29.4,
05-Oct-2017 04:00,30.6,
05-Oct-2017 05:00,31.5,
05-Oct-2017 06:00,23.8,
05-Oct-2017 07:00,24.2,
05-Oct-2017 08:00,23.6,
05-Oct-2017 09:00,20.5,
05-Oct-2017 10:00,19.8,
05-Oct-2017 11:00,21.2,
05-Oct-2017 12:00,21.7,
05-Oct-2017 13:00,22.2,
05-Oct-2017 14:00,31.5,
05-Oct-2017 15:00,23.7,
05-Oct-2017 16:00,27.1,
05-Oct-2017 17:00,25.8,
05-Oct-2017 18:00,34.9,
05-Oct-2017 19:00,28.2,
05-Oct-2017 20:00,24.7,
05-Oct-2017 21:00,28.2,
05-Oct-2017 22:00,28,
05-Oct-2017 23:00,24.9,
06-Oct-2017 00:00,24.1,
06-Oct-2017 01:00,16.5,
06-Oct-2017 02:00,15.3,
06-Oct-2017 03:00,13.4,
06-Oct-2017 04:00,12.5,
06-Oct-2017 05:00,13.2,
06-Oct-2017 06:00,14.1,
06-Oct-2017 07:00,17.5,
06-Oct-2017 08:00,15.4,
06-Oct-2017 09:00,13.3,
06-Oct-2017 10:00,12.9,
06-Oct-2017 11:00,11.1,
06-Oct-2017 12:00,8.9,
06-Oct-2017 13:00,6.6,
06-Oct-2017 14:00,5.5,
06-Oct-2017 15:00,11.9,
06-Oct-2017 16:00,11,
06-Oct-2017 17:00,11.6,
06-Oct-2017 18:00,13.9,
06-Oct-2017 19:00,12.6,
06-Oct-2017 20:00,13.9,
06-Oct-2017 21:00,12.7,
06-Oct-2017 22:00,12.5,
06-Oct-2017 23:00,12.4,
07-Oct-2017 00:00,12.6,
07-Oct-2017 01:00,15.1,
07-Oct-2017 02:00,12.3,
07-Oct-2017 03:00,12.2,
07-Oct-2017 04:00,9.7,
07-Oct-2017 05:00,10.3,
07-Oct-2017 06:00,10.2,
07-Oct-2017 07:00,12,
07-Oct-2017 08:00,11.5,
07-Oct-2017 09:00,11.2,
07-Oct-2017 10:00,7.6,
07-Oct-2017 11:00,7.3,
07-Oct-2017 12:00,7.2,
07-Oct-2017 13:00,9.6,
07-Oct-2017 14:00,9.9,
07-Oct-2017 15:00,11.2,
07-Oct-2017 16:00,20.4,
07-Oct-2017 17:00,11.2,
07-Oct-2017 18:00,14.4,
07-Oct-2017 19:00,14.1,
07-Oct-2017 20:00,16.3,
07-Oct-2017 21:00,18.8,
07-Oct-2017 22:00,23.7,
07-Oct-2017 23:00,26.1,
08-Oct-2017 00:00,28.3,
08-Oct-2017 01:00,18.6,
08-Oct-2017 02:00,22.6,
08-Oct-2017 03:00,18.1,
08-Oct-2017 04:00,16.9,
08-Oct-2017 05:00,17.2,
08-Oct-2017 06:00,16.1,
08-Oct-2017 07:00,20.1,
08-Oct-2017 08:00,22.9,
08-Oct-2017 09:00,15.5,
08-Oct-2017 10:00,10.7,
08-Oct-2017 11:00,12.3,
08-Oct-2017 12:00,13.7,
08-Oct-2017 13:00,15.8,
08-Oct-2017 14:00,20.2,
08-Oct-2017 15:00,25.4,
08-Oct-2017 16:00,27.6,
08-Oct-2017 17:00,24,
08-Oct-2017 18:00,83.6,
08-Oct-2017 19:00,332.1,
08-Oct-2017 20:00,689.4,
08-Oct-2017 21:00,505.4,
08-Oct-2017 22:00,518.5,
08-Oct-2017 23:00,353.4,
09-Oct-2017 00:00,180.1,
09-Oct-2017 01:00,96.6,
09-Oct-2017 02:00,52.4,
09-Oct-2017 03:00,45.7,
09-Oct-2017 04:00,59.6,
09-Oct-2017 05:00,43.3,
09-Oct-2017 06:00,22,
09-Oct-2017 07:00,23.2,
09-Oct-2017 08:00,12.7,
09-Oct-2017 09:00,11.5,
09-Oct-2017 10:00,9.4,
09-Oct-2017 11:00,-2,
09-Oct-2017 12:00,5.9,
09-Oct-2017 13:00,4.7,
09-Oct-2017 14:00,4.8,
09-Oct-2017 15:00,44.6,
09-Oct-2017 16:00,7.1,
09-Oct-2017 17:00,7,
09-Oct-2017 18:00,15.4,
09-Oct-2017 19:00,8.4,
09-Oct-2017 20:00,19.9,
09-Oct-2017 21:00,8.7,
09-Oct-2017 22:00,9.4,
09-Oct-2017 23:00,11,
10-Oct-2017 00:00,10.1,
10-Oct-2017 01:00,8.4,
10-Oct-2017 02:00,8,
10-Oct-2017 03:00,10,
10-Oct-2017 04:00,8.7,
10-Oct-2017 05:00,12.7,
10-Oct-2017 06:00,11.3,
10-Oct-2017 07:00,15.5,
10-Oct-2017 08:00,8.5,
10-Oct-2017 09:00,4,
10-Oct-2017 10:00,14.5,
10-Oct-2017 11:00,10,
10-Oct-2017 12:00,7,
10-Oct-2017 13:00,8.6,
10-Oct-2017 14:00,12.1,
10-Oct-2017 15:00,9.2,
10-Oct-2017 16:00,9.8,
10-Oct-2017 17:00,15.1,
10-Oct-2017 18:00,11.6,
10-Oct-2017 19:00,11.4,
10-Oct-2017 20:00,9.5,
10-Oct-2017 21:00,10.4,
10-Oct-2017 22:00,12.6,
10-Oct-2017 23:00,11.1,
11-Oct-2017 00:00,13.3,
11-Oct-2017 01:00,14,
11-Oct-2017 02:00,12.6,
11-Oct-2017 03:00,15.5,
11-Oct-2017 04:00,16.8,
11-Oct-2017 05:00,18.4,
11-Oct-2017 06:00,23.3,
11-Oct-2017 07:00,37.6,
11-Oct-2017 08:00,19.3,
11-Oct-2017 09:00,19.3,
11-Oct-2017 10:00,21.8,
11-Oct-2017 11:00,22.4,
11-Oct-2017 12:00,20.2,
11-Oct-2017 13:00,23.9,
11-Oct-2017 14:00,33.5,
11-Oct-2017 15:00,21,
11-Oct-2017 16:00,20.1,
11-Oct-2017 17:00,11.4,
11-Oct-2017 18:00,29.5,
11-Oct-2017 19:00,37.1,
11-Oct-2017 20:00,45.4,
11-Oct-2017 21:00,33.8,
11-Oct-2017 22:00,48.4,
11-Oct-2017 23:00,46.1,
12-Oct-2017 00:00,113,
12-Oct-2017 01:00,111,
12-Oct-2017 02:00,43,
12-Oct-2017 03:00,43.6,
12-Oct-2017 04:00,43,
12-Oct-2017 05:00,40.4,
12-Oct-2017 06:00,38.2,
12-Oct-2017 07:00,38.7,
12-Oct-2017 08:00,37.3,
12-Oct-2017 09:00,32.6,
12-Oct-2017 10:00,29.4,
12-Oct-2017 11:00,26,
12-Oct-2017 12:00,25.2,
12-Oct-2017 13:00,25.5,
12-Oct-2017 14:00,27.2,
12-Oct-2017 15:00,29.5,
12-Oct-2017 16:00,27,
12-Oct-2017 17:00,25.6,
12-Oct-2017 18:00,43,
12-Oct-2017 19:00,29.4,
12-Oct-2017 20:00,33.3,
12-Oct-2017 21:00,30.6,
12-Oct-2017 22:00,29.9,
12-Oct-2017 23:00,39,
13-Oct-2017 00:00,33.6,
13-Oct-2017 01:00,30.2,
13-Oct-2017 02:00,29.1,
13-Oct-2017 03:00,24,
13-Oct-2017 04:00,17.3,
13-Oct-2017 05:00,19,
13-Oct-2017 06:00,18.3,
13-Oct-2017 07:00,24.6,
13-Oct-2017 08:00,21.8,
13-Oct-2017 09:00,17.5,
13-Oct-2017 10:00,15.1,
13-Oct-2017 11:00,25.9,
13-Oct-2017 12:00,26.3,
13-Oct-2017 13:00,32.9,
13-Oct-2017 14:00,31,
13-Oct-2017 15:00,31.9,
13-Oct-2017 16:00,33.6,
13-Oct-2017 17:00,30.7,
13-Oct-2017 18:00,32.3,
13-Oct-2017 19:00,37.7,
13-Oct-2017 20:00,33.4,
13-Oct-2017 21:00,36.4,
13-Oct-2017 22:00,35,
13-Oct-2017 23:00,34.3,
14-Oct-2017 00:00,33.6,
14-Oct-2017 01:00,33.1,
14-Oct-2017 02:00,23.4,
14-Oct-2017 03:00,27.5,
14-Oct-2017 04:00,23.8,
14-Oct-2017 05:00,23,
14-Oct-2017 06:00,27.2,
14-Oct-2017 07:00,30,
14-Oct-2017 08:00,40.5,
14-Oct-2017 09:00,34.5,
14-Oct-2017 10:00,26.8,
14-Oct-2017 11:00,24.5,
14-Oct-2017 12:00,19.9,
14-Oct-2017 13:00,18.5,
14-Oct-2017 14:00,19.1,
14-Oct-2017 15:00,20.9,
14-Oct-2017 16:00,17.8,
14-Oct-2017 17:00,17.7,
14-Oct-2017 18:00,20.8,
14-Oct-2017 19:00,21.7,
14-Oct-2017 20:00,53.1,
14-Oct-2017 21:00,20.5,
14-Oct-2017 22:00,18.3,
14-Oct-2017 23:00,16.8,
15-Oct-2017 00:00,12.7,
15-Oct-2017 01:00,11.5,
15-Oct-2017 02:00,10.3,
15-Oct-2017 03:00,13.9,
15-Oct-2017 04:00,11.4,
15-Oct-2017 05:00,10.5,
15-Oct-2017 06:00,11.7,
15-Oct-2017 07:00,12.2,
15-Oct-2017 08:00,12,
15-Oct-2017 09:00,8.3,
15-Oct-2017 10:00,7.7,
15-Oct-2017 11:00,5.6,
15-Oct-2017 12:00,0.2,
15-Oct-2017 13:00,5.2,
15-Oct-2017 14:00,10.1,
15-Oct-2017 15:00,9.2,
15-Oct-2017 16:00,10.8,
15-Oct-2017 17:00,9,
15-Oct-2017 18:00,11.3,
15-Oct-2017 19:00,9.6,
15-Oct-2017 20:00,9.9,
15-Oct-2017 21:00,11.6,
15-Oct-2017 22:00,11.1,
15-Oct-2017 23:00,11,
16-Oct-2017 00:00,13,
16-Oct-2017 01:00,14.6,
16-Oct-2017 02:00,13.4,
16-Oct-2017 03:00,13.5,
16-Oct-2017 04:00,9.1,
16-Oct-2017 05:00,13.5,
16-Oct-2017 06:00,12.7,
16-Oct-2017 07:00,14.8,
16-Oct-2017 08:00,18,
16-Oct-2017 09:00,16.1,
16-Oct-2017 10:00,10.7,
16-Oct-2017 11:00,11.4,
16-Oct-2017 12:00,9.5,
16-Oct-2017 13:00,9.3,
16-Oct-2017 14:00,15.7,
16-Oct-2017 15:00,20.2,
16-Oct-2017 16:00,21.2,
16-Oct-2017 17:00,18,
16-Oct-2017 18:00,23.1,
16-Oct-2017 19:00,24.3,
16-Oct-2017 20:00,28.2,
16-Oct-2017 21:00,24.9,
16-Oct-2017 22:00,28.3,
16-Oct-2017 23:00,32.2,
17-Oct-2017 00:00,26.8,
17-Oct-2017 01:00,38,
17-Oct-2017 02:00,26.9,
17-Oct-2017 03:00,24.1,
17-Oct-2017 04:00,24.2,
17-Oct-2017 05:00,20.6,
17-Oct-2017 06:00,19.3,
17-Oct-2017 07:00,26.1,
17-Oct-2017 08:00,21.2,
17-Oct-2017 09:00,20.3,
17-Oct-2017 10:00,19,
17-Oct-2017 11:00,14.4,
17-Oct-2017 12:00,16.7,
17-Oct-2017 13:00,18.5,
17-Oct-2017 14:00,25.5,
17-Oct-2017 15:00,20.8,
17-Oct-2017 16:00,22.3,
17-Oct-2017 17:00,19.2,
17-Oct-2017 18:00,22.6,
17-Oct-2017 19:00,24.9,
17-Oct-2017 20:00,23.5,
17-Oct-2017 21:00,24.1,
17-Oct-2017 22:00,25.1,
17-Oct-2017 23:00,23.2,
18-Oct-2017 00:00,23.4,
18-Oct-2017 01:00,22.9,
18-Oct-2017 02:00,21.8,
18-Oct-2017 03:00,23.8,
18-Oct-2017 04:00,24,
18-Oct-2017 05:00,25.5,
18-Oct-2017 06:00,27.6,
18-Oct-2017 07:00,23.7,
18-Oct-2017 08:00,29.1,
18-Oct-2017 09:00,21,
18-Oct-2017 10:00,21.1,
18-Oct-2017 11:00,20.2,
18-Oct-2017 12:00,19.3,
18-Oct-2017 13:00,17.4,
18-Oct-2017 14:00,34.9,
18-Oct-2017 15:00,18.2,
18-Oct-2017 16:00,22.1,
18-Oct-2017 17:00,16.6,
18-Oct-2017 18:00,19.5,
18-Oct-2017 19:00,19.3,
18-Oct-2017 20:00,20.3,
18-Oct-2017 21:00,20.4,
18-Oct-2017 22:00,21.3,
18-Oct-2017 23:00,30,
19-Oct-2017 00:00,26.3,
19-Oct-2017 01:00,20.2,
19-Oct-2017 02:00,23.7,
19-Oct-2017 03:00,31.4,
19-Oct-2017 04:00,22.5,
19-Oct-2017 05:00,20.4,
19-Oct-2017 06:00,20.3,
19-Oct-2017 07:00,23.8,
19-Oct-2017 08:00,,BA
19-Oct-2017 09:00,68.6,
19-Oct-2017 10:00,41,
19-Oct-2017 11:00,41.6,
19-Oct-2017 12:00,39.3,
19-Oct-2017 13:00,36.8,
19-Oct-2017 14:00,41,
19-Oct-2017 15:00,48.4,
19-Oct-2017 16:00,42.7,
19-Oct-2017 17:00,41.6,
19-Oct-2017 18:00,41.8,
19-Oct-2017 19:00,41.8,
19-Oct-2017 20:00,38.7,
19-Oct-2017 21:00,36.8,
19-Oct-2017 22:00,33.8,
19-Oct-2017 23:00,21.7,
20-Oct-2017 00:00,19.1,
20-Oct-2017 01:00,21,
20-Oct-2017 02:00,183.6,
20-Oct-2017 03:00,32.3,
20-Oct-2017 04:00,28.5,
20-Oct-2017 05:00,35.6,
20-Oct-2017 06:00,254.1,
20-Oct-2017 07:00,988.2,
20-Oct-2017 08:00,837,
20-Oct-2017 09:00,45.8,
20-Oct-2017 10:00,27,
20-Oct-2017 11:00,5.7,
20-Oct-2017 12:00,15.3,
20-Oct-2017 13:00,16.7,
20-Oct-2017 14:00,19,
20-Oct-2017 15:00,18.5,
20-Oct-2017 16:00,14.6,
20-Oct-2017 17:00,11.2,
20-Oct-2017 18:00,14.7,
20-Oct-2017 19:00,13.7,
20-Oct-2017 20:00,11.9,
20-Oct-2017 21:00,21.3,
20-Oct-2017 22:00,14.5,
20-Oct-2017 23:00,11.3,
21-Oct-2017 00:00,12.1,
21-Oct-2017 01:00,9.1,
21-Oct-2017 02:00,7.6,
21-Oct-2017 03:00,7.5,
21-Oct-2017 04:00,7.4,
21-Oct-2017 05:00,7.4,
21-Oct-2017 06:00,7.3,
21-Oct-2017 07:00,11.3,
21-Oct-2017 08:00,8.3,
21-Oct-2017 09:00,6.6,
21-Oct-2017 10:00,7.2,
21-Oct-2017 11:00,2.2,
21-Oct-2017 12:00,4.3,
21-Oct-2017 13:00,4.8,
21-Oct-2017 14:00,4.5,
21-Oct-2017 15:00,5.1,
21-Oct-2017 16:00,9.4,
21-Oct-2017 17:00,10.6,
21-Oct-2017 18:00,12.3,
21-Oct-2017 19:00,11.3,
21-Oct-2017 20:00,11.1,
21-Oct-2017 21:00,12,
21-Oct-2017 22:00,14,
21-Oct-2017 23:00,12.8,
22-Oct-2017 00:00,11.7,
22-Oct-2017 01:00,11.9,
22-Oct-2017 02:00,12,
22-Oct-2017 03:00,12.2,
22-Oct-2017 04:00,10.7,
22-Oct-2017 05:00,10.8,
22-Oct-2017 06:00,10.2,
22-Oct-2017 07:00,11.6,
22-Oct-2017 08:00,10.6,
22-Oct-2017 09:00,11.2,
22-Oct-2017 10:00,6.2,
22-Oct-2017 11:00,6.6,
22-Oct-2017 12:00,8.9,
22-Oct-2017 13:00,9.7,
22-Oct-2017 14:00,7.5,
22-Oct-2017 15:00,7.4,
22-Oct-2017 16:00,11.7,
22-Oct-2017 17:00,12.2,
22-Oct-2017 18:00,12.1,
22-Oct-2017 19:00,8.1,
22-Oct-2017 20:00,9.3,
22-Oct-2017 21:00,8.7,
22-Oct-2017 22:00,7.9,
22-Oct-2017 23:00,11.1,
23-Oct-2017 00:00,9.4,
23-Oct-2017 01:00,8,
23-Oct-2017 02:00,8.1,
23-Oct-2017 03:00,9.8,
23-Oct-2017 04:00,8.1,
23-Oct-2017 05:00,9.1,
23-Oct-2017 06:00,9.9,
23-Oct-2017 07:00,11.3,
23-Oct-2017 08:00,7.2,
23-Oct-2017 09:00,17.7,
23-Oct-2017 10:00,10.1,
23-Oct-2017 11:00,9.1,
23-Oct-2017 12:00,7.5,
23-Oct-2017 13:00,8.9,
23-Oct-2017 14:00,8.6,
23-Oct-2017 15:00,7.9,
23-Oct-2017 16:00,5.9,
23-Oct-2017 17:00,7.8,
23-Oct-2017 18:00,16.8,
23-Oct-2017 19:00,10.2,
23-Oct-2017 20:00,9.3,
23-Oct-2017 21:00,8.6,
23-Oct-2017 22:00,9.6,
23-Oct-2017 23:00,10.2,
24-Oct-2017 00:00,8.4,
24-Oct-2017 01:00,9.6,
24-Oct-2017 02:00,8.3,
24-Oct-2017 03:00,9.5,
24-Oct-2017 04:00,8.5,
24-Oct-2017 05:00,12.3,
24-Oct-2017 06:00,12.9,
24-Oct-2017 07:00,12.3,
24-Oct-2017 08:00,,BL
24-Oct-2017 09:00,16.4,
24-Oct-2017 10:00,8.6,
24-Oct-2017 11:00,5.3,
24-Oct-2017 12:00,3.4,
24-Oct-2017 13:00,2.5,
24-Oct-2017 14:00,4.1,
24-Oct-2017 15:00,1.2,
24-Oct-2017 16:00,24.1,
24-Oct-2017 17:00,6.5,
24-Oct-2017 18:00,4.8,
24-Oct-2017 19:00,12.7,
24-Oct-2017 20:00,8.9,
24-Oct-2017 21:00,6.9,
24-Oct-2017 22:00,9,
24-Oct-2017 23:00,11.1,
25-Oct-2017 00:00,8.2,
25-Oct-2017 01:00,6.8,
25-Oct-2017 02:00,8.6,
25-Oct-2017 03:00,7.8,
25-Oct-2017 04:00,8.6,
25-Oct-2017 05:00,12.8,
25-Oct-2017 06:00,10.1,
25-Oct-2017 07:00,10.7,
25-Oct-2017 08:00,12,
25-Oct-2017 09:00,6,
25-Oct-2017 10:00,5.2,
25-Oct-2017 11:00,2.9,
25-Oct-2017 12:00,2.7,
25-Oct-2017 13:00,8.9,
25-Oct-2017 14:00,6,
25-Oct-2017 15:00,6.4,
25-Oct-2017 16:00,6.5,
25-Oct-2017 17:00,5.1,
25-Oct-2017 18:00,11.2,
25-Oct-2017 19:00,13,
25-Oct-2017 20:00,9.6,
25-Oct-2017 21:00,9.5,
25-Oct-2017 22:00,8.9,
25-Oct-2017 23:00,9.4,
26-Oct-2017 00:00,7.9,
26-Oct-2017 01:00,11,
26-Oct-2017 02:00,9.5,
26-Oct-2017 03:00,8.4,
26-Oct-2017 04:00,8.5,
26-Oct-2017 05:00,8.5,
26-Oct-2017 06:00,11.1,
26-Oct-2017 07:00,14.7,
26-Oct-2017 08:00,10.7,
26-Oct-2017 09:00,8.3,
26-Oct-2017 10:00,8.7,
26-Oct-2017 11:00,6.3,
26-Oct-2017 12:00,5.4,
26-Oct-2017 13:00,5.7,
26-Oct-2017 14:00,6.1,
26-Oct-2017 15:00,5.6,
26-Oct-2017 16:00,6.6,
26-Oct-2017 17:00,13.6,
26-Oct-2017 18:00,7.6,
26-Oct-2017 19:00,14.5,
26-Oct-2017 20:00,7.9,
26-Oct-2017 21:00,12.2,
26-Oct-2017 22:00,10.4,
26-Oct-2017 23:00,10.3,
27-Oct-2017 00:00,10.1,
27-Oct-2017 01:00,7.9,
27-Oct-2017 02:00,9.6,
27-Oct-2017 03:00,12,
27-Oct-2017 04:00,10.9,
27-Oct-2017 05:00,8.7,
27-Oct-2017 06:00,10.8,
27-Oct-2017 07:00,12.1,
27-Oct-2017 08:00,10.7,
27-Oct-2017 09:00,8.8,
27-Oct-2017 10:00,6.5,
27-Oct-2017 11:00,7.6,
27-Oct-2017 12:00,7.1,
27-Oct-2017 13:00,6,
27-Oct-2017 14:00,5.2,
27-Oct-2017 15:00,7.4,
27-Oct-2017 16:00,7,
27-Oct-2017 17:00,7.6,
27-Oct-2017 18:00,9.9,
27-Oct-2017 19:00,10.6,
27-Oct-2017 20:00,8.7,
27-Oct-2017 21:00,9,
27-Oct-2017 22:00,10.7,
27-Oct-2017 23:00,11.8,
28-Oct-2017 00:00,10.5,
28-Oct-2017 01:00,8.9,
28-Oct-2017 02:00,7.7,
28-Oct-2017 03:00,9.4,
28-Oct-2017 04:00,9.8,
28-Oct-2017 05:00,9.6,
28-Oct-2017 06:00,10.8,
28-Oct-2017 07:00,11.7,
28-Oct-2017 08:00,11.6,
28-Oct-2017 09:00,9.3,
28-Oct-2017 10:00,8.3,
28-Oct-2017 11:00,8.6,
28-Oct-2017 12:00,7,
28-Oct-2017 13:00,7.3,
28-Oct-2017 14:00,9.8,
28-Oct-2017 15:00,10.2,
28-Oct-2017 16:00,12,
28-Oct-2017 17:00,9.3,
28-Oct-2017 18:00,17.1,
28-Oct-2017 19:00,13.1,
28-Oct-2017 20:00,10.5,
28-Oct-2017 21:00,11.1,
28-Oct-2017 22:00,10.1,
28-Oct-2017 23:00,10.2,
29-Oct-2017 00:00,10.4,
29-Oct-2017 01:00,10.6,
29-Oct-2017 02:00,11.4,
29-Oct-2017 03:00,12.6,
29-Oct-2017 04:00,11,
29-Oct-2017 05:00,9.9,
29-Oct-2017 06:00,11.5,
29-Oct-2017 07:00,13,
29-Oct-2017 08:00,12.3,
29-Oct-2017 09:00,9.1,
29-Oct-2017 10:00,8.6,
29-Oct-2017 11:00,7.7,
29-Oct-2017 12:00,9.8,
29-Oct-2017 13:00,11,
29-Oct-2017 14:00,12.1,
29-Oct-2017 15:00,12,
29-Oct-2017 16:00,10.6,
29-Oct-2017 17:00,11.1,
29-Oct-2017 18:00,14.3,
29-Oct-2017 19:00,17.9,
29-Oct-2017 20:00,15,
29-Oct-2017 21:00,13.2,
29-Oct-2017 22:00,13.5,
29-Oct-2017 23:00,13.2,
30-Oct-2017 00:00,13.4,
30-Oct-2017 01:00,13.7,
30-Oct-2017 02:00,14.1,
30-Oct-2017 03:00,12.6,
30-Oct-2017 04:00,23.7,
30-Oct-2017 05:00,13.1,
30-Oct-2017 06:00,14.7,
30-Oct-2017 07:00,15.1,
30-Oct-2017 08:00,15.1,
30-Oct-2017 09:00,13.8,
30-Oct-2017 10:00,10.8,
30-Oct-2017 11:00,8.5,
30-Oct-2017 12:00,21.7,
30-Oct-2017 13:00,22.1,
30-Oct-2017 14:00,28.2,
30-Oct-2017 15:00,25,
30-Oct-2017 16:00,70.1,
30-Oct-2017 17:00,38.6,
30-Oct-2017 18:00,26.1,
30-Oct-2017 19:00,27.2,
30-Oct-2017 20:00,29.3,
30-Oct-2017 21:00,31.8,
30-Oct-2017 22:00,26.4,
30-Oct-2017 23:00,25.9,
31-Oct-2017 00:00,23,
31-Oct-2017 01:00,24.4,
31-Oct-2017 02:00,22.1,
31-Oct-2017 03:00,24,
31-Oct-2017 04:00,14.8,
31-Oct-2017 05:00,13.5,
31-Oct-2017 06:00,16.5,
31-Oct-2017 07:00,21.6,
31-Oct-2017 08:00,20.6,
31-Oct-2017 09:00,32.7,
31-Oct-2017 10:00,28.1,
31-Oct-2017 11:00,22.9,
31-Oct-2017 12:00,16.2,
31-Oct-2017 13:00,18.3,
31-Oct-2017 14:00,30.7,
31-Oct-2017 15:00,22.8,
31-Oct-2017 16:00,21.3,
31-Oct-2017 17:00,21.4,
31-Oct-2017 18:00,18.6,
31-Oct-2017 19:00,19.8,
31-Oct-2017 20:00,31.5,
31-Oct-2017 21:00,18.1,
31-Oct-2017 22:00,19.4,
31-Oct-2017 23:00,19.1,
